Skip Page Navigation
NASA JPL Caltech
NASA Logo - Jet Propulsion Laboratory + View the NASA Portal
+ Center for Near-Earth Object Studies
JPL Home Earth Solar System Stars & Galaxies Technology
JPL Solar System Dynamics
BODIES ORBITS EPHEMERIDES TOOLS PHYSICAL DATA DISCOVERY FAQ SITE MAP
IMPORTANT: The SSD Announcement email list is now available. Major changes are coming in the near future, including possible hostname and/or URL changes. To be notified of such changes, subscribe to this email list.

Please visit this page for more details.


JPL Small-Body Database Browser
Search: [ help ]  
14691 (2000 AK119)
Classification: Main-belt Asteroid          SPK-ID: 2014691
Ephemeris | Orbit Diagram | Orbital Elements | Mission Design | Physical Parameters | Discovery Circumstances ]

[ show orbit diagram ]
Orbital Elements at Epoch 2459000.5 (2020-May-31.0) TDB
Reference: JPL 29 (heliocentric ecliptic J2000)
 Element Value Uncertainty (1-sigma)   Units 
e .1506781047010464 3.7393e-08  
a 2.615897547899814 1.1858e-08 au
q 2.221739063290156 9.7972e-08 au
i 12.21884957399927 4.402e-06 deg
node 270.1038896795466 2.1272e-05 deg
peri 19.86479247808934 2.7118e-05 deg
M 128.7472476996989 1.8213e-05 deg
tp 2458447.831164355175
(2018-Nov-25.33116436)
7.7279e-05 TDB
period 1545.359488353571
4.23
1.0508e-05
2.877e-08
d
yr
n .2329555049896802 1.584e-09 deg/d
Q 3.010056032509473 1.3645e-08 au
  Orbit Determination Parameters
   # obs. used (total)      2205  
   data-arc span      23545 days (64.46 yr)  
   first obs. used      1955-08-20  
   last obs. used      2020-02-05  
   planetary ephem.      DE431  
   SB-pert. ephem.      SB431-N16  
   condition code      0  
   norm. resid. RMS      .46319  
   source      ORB  
   producer      Otto Matic  
   solution date      2020-Feb-22 21:02:31  

Additional Information
 Earth MOID = 1.20914 au 
 Jupiter MOID = 2.15744 au 
 T_jup = 3.359 
[ show covariance matrix ]

Ephemeris | Orbit Diagram | Orbital Elements | Mission Design | Physical Parameters | Discovery Circumstances ]

Physical Parameter Table
Parameter Symbol Value Units Sigma Reference Notes
absolute magnitude H 11.9   n/a MPO449056  
diameter diameter 12.529 km 0.249 urn:nasa:pds:neowise_diameters_albedos::2.0[mainbelt] (http://adsabs.harvard.edu/abs/2014ApJ...791..121M)  
rotation period rot_per 3.652 h n/a LCDB (Rev. 2019-August); Warner et al., 2009 Published Reference List:
[Behrend, R. (2010) Observatoire de Geneve web site, http://obswww.unige.ch/~behrend/page_cou.html]
[Carbognani, A. (2011) Minor Planet Bull. 38, 57-63.]
[Waszczak, A.; Chang, C.-K.; Ofeck, E.O.; Laher, F.; et al. (2015) Astron. J. 150, A75.]
[Durech, J.; Hanus, J.; Oszkiewsicz, D.; Vanco, R. (2016) Astron. Astrophys. 587, A48.]
geometric albedo albedo 0.148   0.032 urn:nasa:pds:neowise_diameters_albedos::2.0[mainbelt] (http://adsabs.harvard.edu/abs/2014ApJ...791..121M)  

14691 (2000 AK119)          Discovered 2000-Jan-05 by LINEAR at Socorro
Reference: 20000418/Numbers.arcLast Updated: 2004-04-19

Alternate Designations
 2000 AK119 = 1955 QD = 1959 NE = 1973 YX1 = 1988 HN = 1989 RW3 = 1993 MQ = 1999 AJ6 
Ephemeris | Orbit Diagram | Orbital Elements | Mission Design | Physical Parameters | Discovery Circumstances ]
ABOUT SSD CREDITS/AWARDS PRIVACY/COPYRIGHT GLOSSARY LINKS
FirstGov 2020-Apr-07 08:08 UT
(server date/time)  
NASA Home Page
Site Manager:   Ryan S. Park
Webmaster  Alan B. Chamberlin